Airfield :
LOGIN :

Register | Disclaimer

   EN    FR    IT 

 










Legend :    VFR   Marginal VFR   IFR   Intensive IFR   Very Intensive IFR
Visi :
Ceiling :
>= 8 km
>= 3000ft
5 to 8 km
1000 to 3000 ft
1500m to 5 km
500 to 1000 ft
800 to 1500m
200 to 500 ft
< 800m
< 200 ft
Symbols :   Thunderstorms  Fog  Heavy snow  Heavy precipitations  Wind > 20 kt
SIGMETs :     Misc.  Thunderstorms  Icing  Turbulence  Mountain Waves  Volcanic Ashes







- Airport Elevation : 1000 ft
- IATA code : PEV


LHPP - Pécs Pogany

CURRENT METAR :
  • 260615Z 06003KT CAVOK 27/21 Q1026

EXPIRED METARs :
  • 260545Z 06003KT CAVOK 26/20 Q1026
  • 260515Z 07002KT CAVOK 25/21 Q1025
  • 260445Z 00000KT CAVOK 25/21 Q1025

TAF TAF LHPP
Valid from the 26 at 06:00 until the 26 at 15:00 UTC


260515Z 2606/2615 VRB02KT CAVOK
No reported NOTAMs for that airfield.



MET'MAP, your aeronautical weather chart ! - Copyright ORBIFLY December 2007 - Disclaimer

ORBIFLY MET'MAP TEAM :

Programming & Development : Alexandra Zaïnal
Concept & Development : Baudouin d'Aumeries
Co-Development & Prog : Marc-Olivier Méhu
Technical & hardware support : Manuel Goepfert

Contact : metmap@orbifly.com




SOURCES & CREDITS :

   NOAA